Terminal Aerodrome Forecast
Issued by NWS

Home | Current Version | Previous Version | Text Only | Print | Product List | Glossary On
Versions: 1 2 3 4 5 6 7 8 9 10 11 12 13 14 15 16 17 18 19 20 21 22 23 24 25 26 27 28 29 30 31 32 33 34 35 36 37 38 39 40 41 42 43
000
FTAK31 PANC 031141
TAFACD
TAF
PACD 031141Z 0312/0412 14020G28KT P6SM FEW025 BKN120
     FM031800 12024G32KT P6SM -RA BKN040
     FM032200 12025G30KT P6SM -RA OVC025
     FM040800 13016G22KT 4SM -RA BR OVC015=

USA.gov is the U.S. government's official web portal to all federal, state and local government web resources and services.